This demonstration page uses our WeatherBlox Daily Observations layout. Learn more.

38.89511, -77.03637

Hourly Observations for April 5, 2015

Temp ( °F °C ) Dew Point ( °F °C ) Humidity (%) Winds ( mph kmh ) Pressure ( in mb ) Visibility ( mi km ) Precip ( " mm )
12:52 am 00:52 Clear 48 8.9 22 -5.6 36 36 WSW 3 6 30.27 1025 10 16.0934 0 0
1:52 am 01:52 Clear 46 7.8 25 -3.9 44 44 SW 5 7 30.28 1025 10 16.0934 0 0
2:52 am 02:52 Clear 45 7.2 26 -3.3 48 48 SSW 6 9 30.28 1025 10 16.0934 0 0
3:52 am 03:52 Mostly Clear 43 6.1 24 -4.4 47 47 SSW 7 11 30.27 1025 10 16.0934 0 0
4:52 am 04:52 Clear 44 6.7 22 -5.6 41 41 SW 5 7 30.28 1025 10 16.0934 0 0
5:52 am 05:52 Clear 44 6.7 21 -6.1 40 40 SSW 6 9 30.29 1026 10 16.0934 0 0
6:52 am 06:52 Mostly Sunny 44 6.7 22 -5.6 41 41 S 3 6 30.29 1026 10 16.0934 0 0
7:52 am 07:52 Mostly Cloudy 44 6.7 24 -4.4 45 45 SSW 6 9 30.32 1027 10 16.0934 0 0
8:52 am 08:52 Mostly Cloudy 49 9.4 25 -3.9 39 39 SSW 7 11 30.32 1027 10 16.0934 0 0
9:52 am 09:52 Mostly Cloudy 55 12.8 24 -4.4 30 30 SW 12 19 30.33 1027 10 16.0934 0 0
10:52 am 10:52 Mostly Cloudy 57 13.9 23 -5 27 27 SSW 15 24 30.32 1027 10 16.0934 0 0
11:52 am 11:52 Mostly Cloudy 60 15.6 24 -4.4 25 25 SW 16 26 30.3 1026 10 16.0934 0 0
12:52 pm 12:52 Mostly Cloudy 63 17.2 24 -4.4 23 23 S 14 22 30.28 1025 10 16.0934 0 0
1:52 pm 13:52 Mostly Cloudy 65 18.3 25 -3.9 22 22 SSW 18 30 30.26 1025 10 16.0934 0 0
2:52 pm 14:52 Partly Cloudy 66 18.9 24 -4.4 20 20 S 17 28 30.21 1023 10 16.0934 0 0
3:52 pm 15:52 Mostly Sunny 69 20.6 19 -7.2 15 15 SSW 18 30 30.18 1022 10 16.0934 0 0
4:52 pm 16:52 Mostly Sunny 67 19.4 19 -7.2 16 16 S 17 28 30.17 1022 10 16.0934 0 0
5:52 pm 17:52 Partly Cloudy 66 18.9 21 -6.1 18 18 SSW 15 24 30.17 1022 10 16.0934 0 0
6:05 pm 18:05 Partly Cloudy 66 19 23 -5 19 19 SSW 13 20 30.18 1022 10 16.0934 0 0
6:52 pm 18:52 Partly Cloudy 66 18.9 20 -6.7 17 17 SSW 17 28 30.17 1022 10 16.0934 0 0
7:52 pm 19:52 Partly Cloudy 62 16.7 23 -5 22 22 SSW 12 19 30.18 1022 10 16.0934 0 0
8:52 pm 20:52 Partly Cloudy 60 15.6 25 -3.9 26 26 SSW 10 17 30.2 1023 10 16.0934 0 0
9:52 pm 21:52 Mostly Cloudy 57 13.9 25 -3.9 29 29 SSW 9 15 30.22 1023 10 16.0934 0 0
10:52 pm 22:52 Mostly Cloudy 57 13.9 25 -3.9 29 29 SSW 10 17 30.23 1024 10 16.0934 0 0
11:52 pm 23:52 Mostly Cloudy 55 12.8 27 -2.8 34 34 S 9 15 30.24 1024 10 16.0934 0 0

Powered by AerisWeather